Time,TemperatureF,DewpointF,PressureIn,WindDirection,WindDirectionDegrees,WindSpeedMPH,WindSpeedGustMPH,Humidity,HourlyPrecipIn,Conditions,Clouds,dailyrainin,SolarRadiationWatts/m^2,SoftwareType,DateUTC
2018-11-18 00:00:54,37.6,35.0,30.26,NE,34,4.0,5.0,91,0.00,,,0.00,0.00,weatherlink.com 1.10,2018-11-17 23:00:54,
2018-11-18 00:15:58,38.0,35.0,30.26,NNE,29,2.0,6.0,90,0.00,,,0.00,0.00,weatherlink.com 1.10,2018-11-17 23:15:58,
2018-11-18 00:30:00,38.3,36.0,30.26,NNE,19,2.0,4.0,90,0.00,,,0.00,0.00,weatherlink.com 1.10,2018-11-17 23:30:00,
2018-11-18 00:45:02,38.6,36.0,30.26,NNE,30,4.0,4.0,89,0.00,,,0.00,0.00,weatherlink.com 1.10,2018-11-17 23:45:02,
2018-11-18 01:00:03,38.8,36.0,30.25,NE,35,3.0,4.0,89,0.00,,,0.00,0.00,weatherlink.com 1.10,2018-11-18 00:00:03,
2018-11-18 01:15:05,38.9,36.0,30.25,NE,36,5.0,5.0,89,0.00,,,0.00,0.00,weatherlink.com 1.10,2018-11-18 00:15:05,
2018-11-18 01:30:06,38.8,36.0,30.25,North,5,2.0,4.0,89,0.00,,,0.00,0.00,weatherlink.com 1.10,2018-11-18 00:30:06,
2018-11-18 01:45:06,38.8,36.0,30.25,North,5,1.0,3.0,89,0.00,,,0.00,0.00,weatherlink.com 1.10,2018-11-18 00:45:06,
2018-11-18 02:00:07,38.9,36.0,30.25,North,10,2.0,3.0,90,0.00,,,0.00,0.00,weatherlink.com 1.10,2018-11-18 01:00:07,
2018-11-18 02:15:08,39.0,36.0,30.25,NNE,22,3.0,4.0,90,0.00,,,0.00,0.00,weatherlink.com 1.10,2018-11-18 01:15:08,
2018-11-18 02:30:09,39.1,36.0,30.24,NNE,28,2.0,4.0,89,0.00,,,0.00,0.00,weatherlink.com 1.10,2018-11-18 01:30:09,
2018-11-18 02:45:11,39.2,36.0,30.24,NNE,28,2.0,3.0,89,0.00,,,0.00,0.00,weatherlink.com 1.10,2018-11-18 01:45:11,
2018-11-18 03:00:13,39.6,37.0,30.24,NNE,28,2.0,3.0,89,0.00,,,0.00,0.00,weatherlink.com 1.10,2018-11-18 02:00:13,
2018-11-18 03:15:16,39.9,37.0,30.24,NNE,28,1.0,3.0,89,0.00,,,0.00,0.00,weatherlink.com 1.10,2018-11-18 02:15:16,
2018-11-18 03:30:19,40.6,36.0,30.23,SE,126,1.0,4.0,82,0.00,,,0.00,0.00,weatherlink.com 1.10,2018-11-18 02:30:19,
2018-11-18 03:45:23,42.6,34.0,30.23,SE,125,3.0,5.0,71,0.00,,,0.00,0.00,weatherlink.com 1.10,2018-11-18 02:45:23,
2018-11-18 04:00:26,43.1,33.0,30.23,SE,130,0.0,3.0,68,0.00,,,0.00,0.00,weatherlink.com 1.10,2018-11-18 03:00:26,
2018-11-18 04:15:29,42.9,33.0,30.22,South,171,2.0,4.0,68,0.00,,,0.00,0.00,weatherlink.com 1.10,2018-11-18 03:15:29,
2018-11-18 04:30:31,42.4,33.0,30.22,ESE,115,1.0,7.0,70,0.00,,,0.00,0.00,weatherlink.com 1.10,2018-11-18 03:30:31,
2018-11-18 04:45:32,42.2,33.0,30.22,SSE,149,3.0,3.0,70,0.00,,,0.00,0.00,weatherlink.com 1.10,2018-11-18 03:45:32,
2018-11-18 05:00:33,42.2,33.0,30.21,SE,138,2.0,3.0,70,0.00,,,0.00,0.00,weatherlink.com 1.10,2018-11-18 04:00:33,
2018-11-18 05:15:34,42.0,32.0,30.22,ENE,59,1.0,4.0,69,0.00,,,0.00,0.00,weatherlink.com 1.10,2018-11-18 04:15:34,
2018-11-18 05:30:35,41.9,33.0,30.22,ENE,57,0.0,2.0,70,0.00,,,0.00,0.00,weatherlink.com 1.10,2018-11-18 04:30:35,
2018-11-18 05:45:35,41.9,33.0,30.22,NE,41,1.0,3.0,71,0.00,,,0.00,0.00,weatherlink.com 1.10,2018-11-18 04:45:35,
2018-11-18 06:00:36,41.8,33.0,30.22,NE,41,2.0,2.0,72,0.00,,,0.00,0.00,weatherlink.com 1.10,2018-11-18 05:00:36,
2018-11-18 06:15:37,41.7,34.0,30.21,NE,41,0.0,1.0,73,0.00,,,0.00,0.00,weatherlink.com 1.10,2018-11-18 05:15:37,
2018-11-18 06:30:38,41.5,34.0,30.21,NE,41,0.0,1.0,74,0.00,,,0.00,0.00,weatherlink.com 1.10,2018-11-18 05:30:38,
2018-11-18 06:45:39,41.4,34.0,30.21,NE,41,2.0,2.0,75,0.00,,,0.00,0.00,weatherlink.com 1.10,2018-11-18 05:45:39,
2018-11-18 07:00:39,41.4,34.0,30.21,NE,41,0.0,2.0,75,0.00,,,0.00,0.00,weatherlink.com 1.10,2018-11-18 06:00:39,
2018-11-18 07:15:40,41.3,34.0,30.21,NE,41,0.0,1.0,76,0.00,,,0.00,0.00,weatherlink.com 1.10,2018-11-18 06:15:40,
2018-11-18 07:30:41,41.2,35.0,30.22,NE,41,1.0,3.0,79,0.00,,,0.00,0.00,weatherlink.com 1.10,2018-11-18 06:30:41,
2018-11-18 07:45:42,41.1,35.0,30.22,NE,39,1.0,3.0,79,0.00,,,0.00,9.00,weatherlink.com 1.10,2018-11-18 06:45:42,
2018-11-18 08:00:44,41.1,35.0,30.22,NE,39,1.0,2.0,79,0.00,,,0.00,26.00,weatherlink.com 1.10,2018-11-18 07:00:44,
2018-11-18 08:15:48,41.3,36.0,30.22,NE,39,0.0,1.0,80,0.00,,,0.00,53.00,weatherlink.com 1.10,2018-11-18 07:15:48,
2018-11-18 08:30:51,41.6,35.0,30.22,NE,39,2.0,2.0,78,0.00,,,0.00,83.00,weatherlink.com 1.10,2018-11-18 07:30:51,
2018-11-18 08:45:52,42.2,34.0,30.22,NE,39,1.0,2.0,74,0.00,,,0.00,97.00,weatherlink.com 1.10,2018-11-18 07:45:52,
2018-11-18 09:00:55,42.9,32.0,30.22,NE,39,0.0,2.0,66,0.00,,,0.00,125.00,weatherlink.com 1.10,2018-11-18 08:00:55,
2018-11-18 09:15:57,43.4,30.0,30.23,NE,39,2.0,3.0,59,0.00,,,0.00,125.00,weatherlink.com 1.10,2018-11-18 08:15:57,
2018-11-18 09:30:59,43.7,31.0,30.23,NE,36,1.0,2.0,62,0.00,,,0.00,142.00,weatherlink.com 1.10,2018-11-18 08:30:59,
2018-11-18 09:45:01,44.3,30.0,30.23,North,355,1.0,4.0,57,0.00,,,0.00,197.00,weatherlink.com 1.10,2018-11-18 08:45:01,
2018-11-18 10:00:04,45.0,29.0,30.22,ESE,107,4.0,4.0,53,0.00,,,0.00,279.00,weatherlink.com 1.10,2018-11-18 09:00:04,
2018-11-18 10:15:07,45.6,28.0,30.22,SE,146,2.0,7.0,50,0.00,,,0.00,271.00,weatherlink.com 1.10,2018-11-18 09:15:07,
2018-11-18 10:30:08,45.9,29.0,30.22,South,185,5.0,7.0,51,0.00,,,0.00,290.00,weatherlink.com 1.10,2018-11-18 09:30:08,
2018-11-18 10:45:09,45.5,28.0,30.21,ENE,77,1.0,7.0,51,0.00,,,0.00,304.00,weatherlink.com 1.10,2018-11-18 09:45:09,
2018-11-18 11:00:11,45.6,27.0,30.21,South,178,3.0,6.0,49,0.00,,,0.00,134.00,weatherlink.com 1.10,2018-11-18 10:00:11,
2018-11-18 11:15:12,45.9,28.0,30.21,SE,136,1.0,5.0,49,0.00,,,0.00,156.00,weatherlink.com 1.10,2018-11-18 10:15:12,
2018-11-18 11:30:14,46.1,28.0,30.20,SE,138,1.0,5.0,50,0.00,,,0.00,197.00,weatherlink.com 1.10,2018-11-18 10:30:14,
2018-11-18 11:45:17,46.8,29.0,30.19,SSW,196,3.0,5.0,50,0.00,,,0.00,339.00,weatherlink.com 1.10,2018-11-18 10:45:17,
2018-11-18 12:00:20,46.5,28.0,30.19,SSE,153,1.0,8.0,48,0.00,,,0.00,348.00,weatherlink.com 1.10,2018-11-18 11:00:20,
2018-11-18 12:15:23,47.8,28.0,30.18,South,190,3.0,4.0,47,0.00,,,0.00,352.00,weatherlink.com 1.10,2018-11-18 11:15:23,
2018-11-18 12:30:26,47.1,28.0,30.17,SE,144,1.0,6.0,48,0.00,,,0.00,350.00,weatherlink.com 1.10,2018-11-18 11:30:26,
2018-11-18 12:45:29,48.1,29.0,30.16,WSW,249,2.0,4.0,47,0.00,,,0.00,343.00,weatherlink.com 1.10,2018-11-18 11:45:29,
2018-11-18 13:00:34,48.6,30.0,30.14,SSW,207,3.0,5.0,48,0.00,,,0.00,336.00,weatherlink.com 1.10,2018-11-18 12:00:34,
2018-11-18 13:15:36,48.5,28.0,30.13,SSW,213,2.0,7.0,46,0.00,,,0.00,325.00,weatherlink.com 1.10,2018-11-18 12:15:36,
2018-11-18 13:30:39,48.4,28.0,30.12,NW,325,3.0,7.0,46,0.00,,,0.00,308.00,weatherlink.com 1.10,2018-11-18 12:30:39,
2018-11-18 13:45:41,48.7,30.0,30.11,NW,314,4.0,6.0,48,0.00,,,0.00,290.00,weatherlink.com 1.10,2018-11-18 12:45:41,
2018-11-18 14:00:45,49.7,30.0,30.10,West,261,2.0,4.0,47,0.00,,,0.00,272.00,weatherlink.com 1.10,2018-11-18 13:00:45,
2018-11-18 14:15:48,49.0,30.0,30.09,NW,320,1.0,7.0,48,0.00,,,0.00,250.00,weatherlink.com 1.10,2018-11-18 13:15:48,
2018-11-18 14:30:51,49.4,31.0,30.08,SSW,211,5.0,5.0,49,0.00,,,0.00,225.00,weatherlink.com 1.10,2018-11-18 13:30:51,
2018-11-18 14:45:52,49.7,31.0,30.08,SW,234,0.0,7.0,49,0.00,,,0.00,202.00,weatherlink.com 1.10,2018-11-18 13:45:52,
2018-11-18 15:00:56,49.6,30.0,30.07,SSW,211,2.0,5.0,48,0.00,,,0.00,174.00,weatherlink.com 1.10,2018-11-18 14:00:56,
2018-11-18 15:15:56,49.7,32.0,30.07,SW,225,2.0,4.0,50,0.00,,,0.00,139.00,weatherlink.com 1.10,2018-11-18 14:15:56,
2018-11-18 15:30:58,49.7,32.0,30.06,WSW,244,3.0,5.0,50,0.00,,,0.00,105.00,weatherlink.com 1.10,2018-11-18 14:30:58,
2018-11-18 15:45:00,48.6,31.0,30.05,WSW,246,3.0,9.0,51,0.00,,,0.00,76.00,weatherlink.com 1.10,2018-11-18 14:45:00,
2018-11-18 16:00:02,48.4,32.0,30.05,SW,227,3.0,7.0,53,0.00,,,0.00,47.00,weatherlink.com 1.10,2018-11-18 15:00:02,
2018-11-18 16:15:03,48.1,32.0,30.04,WSW,246,5.0,5.0,54,0.00,,,0.00,26.00,weatherlink.com 1.10,2018-11-18 15:15:03,
2018-11-18 16:30:06,47.4,32.0,30.04,WSW,246,2.0,4.0,56,0.00,,,0.00,14.00,weatherlink.com 1.10,2018-11-18 15:30:06,
2018-11-18 16:45:07,46.5,32.0,30.03,SW,235,1.0,4.0,58,0.00,,,0.00,5.00,weatherlink.com 1.10,2018-11-18 15:45:07,
2018-11-18 17:00:09,45.6,33.0,30.02,SW,235,0.0,3.0,61,0.00,,,0.00,0.00,weatherlink.com 1.10,2018-11-18 16:00:09,
2018-11-18 17:15:12,44.9,32.0,30.01,SW,234,0.0,3.0,62,0.00,,,0.00,0.00,weatherlink.com 1.10,2018-11-18 16:15:12,
2018-11-18 17:30:14,44.3,33.0,30.00,SW,234,0.0,1.0,65,0.00,,,0.00,0.00,weatherlink.com 1.10,2018-11-18 16:30:14,
2018-11-18 17:45:15,43.4,33.0,30.00,SW,234,0.0,1.0,67,0.00,,,0.00,0.00,weatherlink.com 1.10,2018-11-18 16:45:15,
2018-11-18 18:00:17,42.5,33.0,29.99,SW,234,0.0,0.0,69,0.00,,,0.00,0.00,weatherlink.com 1.10,2018-11-18 17:00:17,
2018-11-18 18:15:18,41.8,33.0,30.00,SW,234,0.0,1.0,70,0.00,,,0.00,0.00,weatherlink.com 1.10,2018-11-18 17:15:18,